Miscellaneous Local Product
Issued by NWS Hastings, NE

Home | Current Version | Previous Version | Graphics & Text | Print | Product List | Glossary On
Versions: 1 2 3 4 5 6 7 8 9 10 11 12 13 14 15 16 17 18 19 20 21 22 23 24 25 26 27 28 29 30 31 32 33 34 35 36 37 38 39 40 41 42 43 44 45 46 47 48 49 50
000
AXUS43 KGID 271002
MISGRI

GID CWA HOURLY WEATHER ROUNDUP
NATIONAL WEATHER SERVICE HASTINGS NE
400 AM CST TUE JAN 27 2015

NOTE: "FAIR" INDICATES FEW OR NO CLOUDS BELOW 12,000 FEET WITH NO
SIGNIFICANT WEATHER AND/OR OBSTRUCTIONS TO VISIBILITY.

...SOUTH CENTRAL NEBRASKA...

CITY           SKY/WX    TMP DP  RH WIND       PRES   REMARKS
GRAND ISLAND   CLEAR     28  24  85 CALM      30.06F
HASTINGS       PTCLDY    30  24  78 CALM      30.06S
KEARNEY        PTCLDY    30  25  80 CALM      30.05F
ORD            CLEAR     26  22  84 CALM      30.03F
YORK           CLEAR     30  27  86 CALM      30.07F
AURORA         CLEAR     31  27  87 CALM      30.06F
LEXINGTON      CLEAR     29  26  89 W8        30.05F WCI  21
HOLDREGE       PTCLDY    38  28  69 SW6       30.05F WCI  33
HEBRON         PTCLDY    28  24  86 CALM      30.09F

...NEBRASKA PANHANDLE...

CITY           SKY/WX    TMP DP  RH WIND       PRES   REMARKS
CHADRON        CLEAR     34  27  75 SW9       30.04S WCI  27
ALLIANCE       CLEAR     28  25  88 W7        30.06F WCI  21
SCOTTSBLUFF    PTCLDY    32  28  85 N5        30.08F WCI  27
SIDNEY         PTCLDY    35  27  72 W8        30.10F WCI  29

...WESTERN AND NORTH CENTRAL NEBRASKA...

CITY           SKY/WX    TMP DP  RH WIND       PRES   REMARKS
VALENTINE      CLEAR     28  26  92 SW6       29.99F WCI  22
AINSWORTH      CLEAR     36  31  82 SW7       29.99F WCI  30
ONEILL         CLEAR     32  29  88 S3        30.03F
BROKEN BOW     CLEAR     31  26  82 CALM      30.02F
IMPERIAL       PTCLDY    33  26  75 CALM      30.08F
NORTH PLATTE   PTCLDY    25  22  88 W6        30.06F WCI  18
MCCOOK         PTCLDY    33  27  78 W5        30.08S WCI  29

...EASTERN NEBRASKA...

CITY           SKY/WX    TMP DP  RH WIND       PRES   REMARKS
NORFOLK        CLEAR     26  24  92 CALM      30.05F
SO SIOUX CITY  CLEAR     28  27  96 CALM      30.07S
TEKAMAH        CLEAR     28  25  88 CALM      30.08S
COLUMBUS       CLEAR     25  18  74 CALM      30.08F
ALBION         CLEAR     26  22  87 CALM      30.05F
OMAHA EPPLEY   CLEAR     30  28  92 CALM      30.07F
OFFUTT AFB     CLEAR     28  26  96 NW1       30.07S
MILLARD        CLEAR     31  29  92 CALM      30.07F
LINCOLN        CLEAR     27  23  85 CALM      30.09F
NEBRASKA CITY  CLEAR     35  29  79 N3        30.08S
BEATRICE       CLEAR     26  22  85 NW3       30.09S
FALLS CITY     CLEAR     31  27  85 W5        30.08S WCI  26

...NORTHERN KANSAS...

CITY           SKY/WX    TMP DP  RH WIND       PRES   REMARKS
GOODLAND       CLEAR     44  29  55 W14       30.11F
HILL CITY      CLEAR     35  28  75 SW3       30.08F
NORTON         SUNNY     30  25  80 SW8       30.05  WCI  23
PHILLIPSBURG   CLEAR     37  28  70 W5        30.08S WCI  34
SMITH CENTER   CLEAR     30  25  80 CALM      30.08S
BELOIT         CLEAR     27  25  93 CALM      30.08S
HAYS           CLEAR     32  19  59 W3        30.09S
RUSSELL        CLEAR     33  28  81 SW7       30.07F WCI  27
CONCORDIA      CLEAR     36  31  82 CALM      30.08F
SALINA         CLEAR     34  27  75 CALM      30.10S
TOPEKA         CLEAR     29  25  85 CALM      30.10S



USA.gov is the U.S. government's official web portal to all federal, state and local government web resources and services.